GW2366 Weather Reports


Display with metric or nautical units.
time (UTC)temp
F
wind
direction
speed
MPH
gust
MPH
rain 1hr
in
rain 24hr
in
rain mn
in
humidity
%
barometer
mb
20260508202836 68 87 1.0 1.0 0.00 0.01 0.01 80 1017.5
20260508202333 68 66 2.0 2.0 0.00 0.01 0.01 78 1017.5
20260508201831 68 61 3.0 5.0 0.00 0.01 0.01 77 1017.8
20260508201328 67 26 3.0 3.0 0.00 0.01 0.01 79 1017.8
20260508200824 67 91 5.0 6.0 0.00 0.01 0.01 77 1017.8
20260508200320 69 37 2.0 3.0 0.00 0.01 0.01 77 1017.7
20260508195811 68 41 1.0 1.0 0.00 0.01 0.01 78 1017.7
20260508195308 68 185 3.0 3.0 0.00 0.01 0.01 77 1017.9
20260508194804 68 293 1.0 2.0 0.00 0.01 0.01 77 1017.8
20260508194302 68 78 2.0 3.0 0.00 0.01 0.01 79 1017.8
20260508193759 68 303 0.0 1.0 0.00 0.01 0.01 80 1018.1
20260508193255 66 129 2.0 2.0 0.00 0.01 0.01 79 1018.2
20260508192751 66 133 4.0 5.0 0.00 0.01 0.01 79 1018.0
20260508192249 66 48 3.0 5.0 0.00 0.01 0.01 78 1017.9
20260508191746 67 257 0.0 0.0 0.00 0.01 0.01 77 1018.0
20260508191243 67 108 1.0 2.0 0.00 0.01 0.01 79 1018.1
20260508190740 66 229 3.0 3.0 0.00 0.01 0.01 77 1018.2
20260508190236 66 87 2.0 3.0 0.00 0.01 0.01 81 1018.2
20260508185733 65 233 3.0 3.0 0.00 0.01 0.01 80 1018.2
20260508185230 66 284 1.0 2.0 0.00 0.01 0.01 78 1018.0
20260508184727 65 288 1.0 1.0 0.00 0.01 0.01 81 1018.2
20260508184224 65 241 3.0 3.0 0.00 0.01 0.01 79 1018.4
20260508183721 64 267 0.0 1.0 0.00 0.01 0.01 81 1018.4
20260508183217 64 299 0.0 1.0 0.00 0.01 0.01 82 1018.3
20260508182713 63 235 1.0 2.0 0.00 0.01 0.01 83 1018.4
20260508182210 63 256 2.0 2.0 0.00 0.01 0.01 85 1018.4
20260508181706 62 304 2.0 2.0 0.00 0.01 0.01 86 1018.4
20260508181203 62 234 1.0 2.0 0.00 0.01 0.01 85 1018.3
20260508180700 61 285 1.0 2.0 0.00 0.01 0.01 86 1018.6
20260508180157 60 147 1.0 1.0 0.00 0.01 0.01 87 1018.5
20260508175654 60 245 1.0 1.0 0.00 0.01 0.01 87 1018.5
20260508175150 60 271 1.0 1.0 0.00 0.01 0.01 88 1018.6
20260508174648 59 333 1.0 2.0 0.00 0.01 0.01 91 1018.6
20260508174144 59 301 2.0 3.0 0.00 0.01 0.01 90 1018.6
20260508173641 58 337 0.0 0.0 0.00 0.01 0.01 92 1018.7
20260508173137 57 309 0.0 0.0 0.00 0.01 0.01 94 1018.7
20260508172635 56 257 2.0 5.0 0.00 0.01 0.01 96 1018.7
20260508172131 55 15 1.0 1.0 0.00 0.01 0.01 97 1018.8
20260508171628 54 260 1.0 1.0 0.00 0.01 0.01 98 1018.8
20260508171124 54 258 1.0 1.0 0.00 0.01 0.01 99 1018.7
20260508170621 54 334 0.0 0.0 0.00 0.01 0.01 99 1018.5
20260508170119 54 234 2.0 2.0 0.00 0.01 0.01 99 1018.4
20260508165616 53 186 1.0 2.0 0.00 0.01 0.01 99 1018.4
20260508165113 53 289 0.0 1.0 0.00 0.01 0.01 99 1018.6
20260508164609 53 279 0.0 0.0 0.00 0.01 0.01 99 1018.5
20260508164106 53 300 0.0 1.0 0.00 0.01 0.01 99 1018.5
20260508163603 52 270 2.0 2.0 0.00 0.01 0.01 99 1018.4
20260508163100 53 281 0.0 1.0 0.00 0.01 0.01 99 1018.5
20260508162557 52 112 2.0 2.0 0.00 0.01 0.01 99 1018.5
20260508162054 52 329 0.0 0.0 0.00 0.01 0.01 99 1018.5
20260508161551 52 292 0.0 1.0 0.00 0.01 0.01 99 1018.6
20260508161048 52 306 0.0 0.0 0.00 0.01 0.01 99 1018.6
20260508160547 52 296 0.0 0.0 0.00 0.01 0.01 99 1018.6
20260508160043 53 301 0.0 0.0 0.00 0.01 0.01 99 1018.6
20260508155540 53 21 0.0 0.0 0.00 0.01 0.01 99 1018.5
20260508155037 51 26 0.0 0.0 0.00 0.01 0.01 99 1018.5
20260508154534 51 333 0.0 0.0 0.00 0.01 0.01 99 1018.4
20260508154031 51 68 0.0 0.0 0.00 0.01 0.01 99 1018.2
20260508153528 51 27 0.0 0.0 0.00 0.01 0.01 99 1018.2
20260508153024 51 45 1.0 2.0 0.00 0.01 0.01 99 1018.3
20260508152521 50 131 1.0 2.0 0.00 0.01 0.01 99 1018.3
20260508152017 50 49 0.0 0.0 0.00 0.01 0.01 99 1018.2
20260508151514 50 89 1.0 2.0 0.00 0.01 0.01 99 1018.2
20260508151010 50 83 0.0 0.0 0.00 0.01 0.01 99 1018.1
20260508150508 50 56 0.0 0.0 0.00 0.01 0.01 99 1018.3
20260508150004 50 32 0.0 0.0 0.00 0.01 0.01 99 1018.1
20260508145500 50 27 0.0 0.0 0.00 0.01 0.01 99 1018.2
20260508144956 50 50 0.0 0.0 0.00 0.01 0.01 99 1018.3
20260508144454 50 317 0.0 0.0 0.00 0.01 0.01 99 1018.3
20260508143951 50 328 0.0 0.0 0.00 0.01 0.01 99 1018.2
20260508143449 50 282 0.0 0.0 0.00 0.01 0.01 99 1018.0
20260508142945 50 319 0.0 0.0 0.00 0.01 0.01 99 1017.7
20260508142442 50 323 0.0 0.0 0.00 0.01 0.01 99 1017.9
20260508141939 50 312 0.0 0.0 0.00 0.01 0.01 99 1017.8
20260508141436 50 308 0.0 0.0 0.07 0.01 0.01 99 1017.7
20260508140933 50 359 0.0 0.0 0.07 0.01 0.01 99 1017.8
20260508140430 50 25 0.0 0.0 0.00 0.00 0.00 99 1017.7
20260508135925 49 307 0.0 0.0 0.00 0.00 0.00 99 1017.8
20260508135422 49 17 0.0 0.0 0.00 0.00 0.00 99 1017.7
20260508134919 49 330 0.0 0.0 0.00 0.00 0.00 99 1017.6
20260508134415 49 2 0.0 0.0 0.00 0.00 0.00 99 1017.5
20260508133912 49 327 0.0 0.0 0.00 0.00 0.00 99 1017.5
20260508133410 49 322 0.0 0.0 0.00 0.00 0.00 99 1017.6
20260508132907 49 320 0.0 0.0 0.00 0.00 0.00 99 1017.6
20260508132405 49 319 0.0 0.0 0.00 0.00 0.00 99 1017.4
20260508131901 49 319 0.0 0.0 0.00 0.00 0.00 99 1017.7
20260508131356 49 353 0.0 0.0 0.00 0.00 0.00 99 1017.6
20260508130854 49 320 0.0 0.0 0.00 0.00 0.00 99 1017.5
20260508130350 49 316 0.0 0.0 0.00 0.00 0.00 99 1017.6
20260508125846 49 286 0.0 0.0 0.00 0.00 0.00 99 1017.5
20260508125342 49 273 0.0 0.0 0.00 0.00 0.00 99 1017.6
20260508124841 49 32 0.0 0.0 0.00 0.00 0.00 99 1017.4
20260508124338 49 306 0.0 0.0 0.00 0.00 0.00 99 1017.5
20260508123836 49 335 0.0 0.0 0.00 0.00 0.00 99 1017.3
20260508123334 49 22 0.0 1.0 0.00 0.00 0.00 99 1017.4
20260508122830 49 338 0.0 0.0 0.00 0.00 0.00 99 1017.4
20260508122327 49 48 2.0 2.0 0.00 0.00 0.00 99 1017.3
20260508121824 49 7 0.0 1.0 0.00 0.00 0.00 99 1017.3
20260508121323 49 343 0.0 0.0 0.00 0.00 0.00 99 1017.2
20260508120820 49 16 0.0 0.0 0.00 0.00 0.00 99 1017.4
20260508120318 49 9 1.0 2.0 0.00 0.00 0.00 99 1017.4
20260508115815 49 13 0.0 0.0 0.00 0.00 0.00 99 1017.4
20260508115312 49 320 0.0 0.0 0.00 0.00 0.00 99 1017.2
20260508114809 49 335 0.0 0.0 0.00 0.00 0.00 99 1017.4
20260508114306 49 45 0.0 0.0 0.00 0.00 0.00 99 1017.2
20260508113802 49 90 0.0 0.0 0.00 0.00 0.00 99 1017.2
20260508113301 49 340 0.0 0.0 0.00 0.00 0.00 99 1017.5
20260508112756 49 25 0.0 0.0 0.00 0.00 0.00 99 1017.5
20260508112254 49 23 0.0 0.0 0.00 0.00 0.00 99 1017.4
20260508111749 49 337 0.0 0.0 0.00 0.00 0.00 99 1017.3
20260508111247 49 44 1.0 2.0 0.00 0.00 0.00 99 1017.4
20260508110744 49 17 0.0 1.0 0.00 0.00 0.00 99 1017.2
20260508110241 49 11 0.0 0.0 0.00 0.00 0.00 99 1017.5
20260508105736 49 7 1.0 1.0 0.00 0.00 0.00 99 1017.3
20260508105233 49 4 0.0 0.0 0.00 0.00 0.00 99 1017.5
20260508104730 49 330 0.0 0.0 0.00 0.00 0.00 99 1017.6
20260508104227 49 339 0.0 0.0 0.00 0.00 0.00 99 1017.6
20260508103725 49 39 1.0 1.0 0.00 0.00 0.00 99 1017.3
20260508103221 49 3 0.0 1.0 0.00 0.00 0.00 99 1017.5
20260508102718 49 24 0.0 1.0 0.00 0.00 0.00 99 1017.3
20260508102216 49 339 0.0 0.0 0.00 0.00 0.00 99 1017.4
20260508101713 49 340 0.0 0.0 0.00 0.00 0.00 99 1017.4
20260508101211 49 351 0.0 0.0 0.00 0.00 0.00 99 1017.4
20260508100708 49 283 0.0 0.0 0.00 0.00 0.00 99 1017.4
20260508100206 49 283 0.0 0.0 0.00 0.00 0.00 99 1017.5
20260508095702 49 283 0.0 0.0 0.00 0.00 0.00 99 1017.6
20260508095200 49 283 0.0 0.0 0.00 0.00 0.00 99 1017.4
20260508094656 49 283 0.0 0.0 0.00 0.00 0.00 99 1017.4
20260508094153 49 283 0.0 0.0 0.00 0.00 0.00 99 1017.7
20260508093650 49 284 0.0 0.0 0.00 0.00 0.00 99 1017.7
20260508093148 49 301 0.0 0.0 0.00 0.00 0.00 99 1017.6
20260508092644 49 341 0.0 0.0 0.00 0.00 0.00 99 1017.3
20260508092143 49 341 0.0 0.0 0.00 0.00 0.00 99 1017.3
20260508091640 49 341 0.0 0.0 0.00 0.00 0.00 99 1017.6
20260508091137 49 342 0.0 0.0 0.00 0.00 0.00 99 1017.4
20260508090635 49 342 0.0 0.0 0.00 0.00 0.00 99 1017.5
20260508090132 49 352 0.0 0.0 0.00 0.00 0.00 99 1017.3
20260508085628 49 335 0.0 0.0 0.00 0.00 0.00 99 1017.4
20260508085126 49 350 0.0 1.0 0.00 0.00 0.00 99 1017.4
20260508084622 49 309 0.0 0.0 0.00 0.00 0.00 99 1017.4
20260508084119 49 267 0.0 1.0 0.00 0.00 0.00 99 1017.4
20260508083616 50 26 1.0 1.0 0.00 0.00 0.00 99 1017.4
20260508083114 50 356 0.0 0.0 0.00 0.00 0.00 99 1017.4
20260508082609 50 300 0.0 0.0 0.00 0.00 0.00 99 1017.4
20260508082107 49 291 0.0 1.0 0.00 0.00 0.00 99 1017.4
20260508081604 49 0 0.0 0.0 0.00 0.00 0.00 99 1017.4
20260508081100 50 70 1.0 1.0 0.00 0.00 0.00 99 1017.4
20260508080558 50 69 2.0 2.0 0.00 0.00 0.00 99 1017.3
20260508080055 50 71 0.0 1.0 0.00 0.00 0.00 99 1017.4
20260508075551 50 324 0.0 0.0 0.00 0.00 0.00 99 1017.5
20260508075049 50 7 0.0 1.0 0.00 0.00 0.00 99 1017.4
20260508074547 50 313 0.0 0.0 0.00 0.00 0.00 99 1017.4
20260508074043 50 323 0.0 0.0 0.00 0.00 0.00 99 1017.4
20260508073540 50 282 0.0 0.0 0.00 0.00 0.00 99 1017.3
20260508073038 50 345 0.0 0.0 0.00 0.00 0.00 99 1017.5
20260508072533 50 302 0.0 1.0 0.00 0.00 0.00 99 1017.7
20260508072031 50 358 0.0 1.0 0.00 0.00 0.00 99 1017.5
20260508071529 50 31 1.0 1.0 0.00 0.00 0.00 99 1017.4
20260508071026 50 5 0.0 0.0 0.00 0.00 0.00 99 1017.3
20260508070524 50 22 1.0 1.0 0.00 0.00 0.00 99 1017.4
20260508070022 50 21 1.0 1.0 0.00 0.00 0.00 99 1017.3
20260508065519 50 354 0.0 1.0 0.00 0.01 0.01 99 1017.1
20260508065018 50 66 1.0 2.0 0.00 0.01 0.01 99 1017.0
20260508064515 49 354 0.0 0.0 0.00 0.01 0.01 99 1017.2
20260508064013 48 286 0.0 0.0 0.00 0.01 0.01 99 1017.4
20260508063510 47 286 0.0 0.0 0.00 0.01 0.01 99 1017.3
20260508063007 47 286 0.0 0.0 0.00 0.01 0.01 99 1017.3
20260508062505 47 286 0.0 0.0 0.00 0.01 0.01 99 1017.3
20260508062001 47 286 0.0 0.0 0.00 0.01 0.01 99 1017.4
20260508061500 48 286 0.0 0.0 0.00 0.01 0.01 99 1017.3
20260508060955 48 286 0.0 0.0 0.00 0.01 0.01 99 1017.3
20260508060453 48 285 0.0 0.0 0.00 0.01 0.01 99 1017.3
20260508055949 48 286 0.0 0.0 0.00 0.01 0.01 99 1017.2
20260508055446 48 286 0.0 0.0 0.00 0.01 0.01 99 1017.4
20260508054942 48 286 0.0 0.0 0.00 0.01 0.01 99 1017.2
20260508054439 48 286 0.0 0.0 0.00 0.01 0.01 99 1017.5
20260508053936 49 286 0.0 0.0 0.00 0.01 0.01 99 1017.3
20260508053433 49 286 0.0 0.0 0.00 0.01 0.01 99 1017.4
20260508052931 49 286 0.0 0.0 0.00 0.01 0.01 99 1017.3
20260508052428 49 285 0.0 0.0 0.00 0.01 0.01 99 1017.3
20260508051924 49 285 0.0 0.0 0.00 0.01 0.01 99 1017.4
20260508051420 49 288 0.0 0.0 0.00 0.01 0.01 99 1017.4
20260508050916 49 288 0.0 0.0 0.00 0.01 0.01 99 1017.3
20260508050413 50 288 0.0 0.0 0.00 0.01 0.01 99 1017.3
20260508045909 50 289 0.0 0.0 0.00 0.01 0.01 99 1017.2
20260508045407 50 289 0.0 0.0 0.00 0.01 0.01 99 1017.2
20260508044904 50 288 0.0 0.0 0.00 0.01 0.01 99 1017.3
20260508044402 50 288 0.0 0.0 0.00 0.01 0.01 98 1017.3
20260508043857 50 283 0.0 0.0 0.00 0.01 0.01 98 1017.3
20260508043354 50 282 0.0 0.0 0.00 0.01 0.01 98 1017.3
20260508042851 50 273 0.0 0.0 0.00 0.01 0.01 98 1017.0
20260508042348 51 282 0.0 0.0 0.00 0.01 0.01 98 1017.0
20260508041845 51 290 0.0 0.0 0.00 0.01 0.01 98 1017.0
20260508041341 51 291 0.0 0.0 0.00 0.01 0.01 98 1016.9
20260508040838 51 291 0.0 0.0 0.00 0.01 0.01 97 1016.9
20260508040335 51 305 0.0 0.0 0.00 0.01 0.01 97 1016.9
20260508035832 51 293 1.0 1.0 0.00 0.01 0.01 96 1016.8
20260508035324 51 279 0.0 0.0 0.00 0.01 0.01 96 1016.8
20260508034821 52 277 0.0 1.0 0.00 0.01 0.01 96 1016.5
20260508034318 52 281 0.0 0.0 0.00 0.01 0.01 96 1016.6
20260508033815 52 282 0.0 0.0 0.00 0.01 0.01 95 1016.3
20260508033313 53 282 0.0 0.0 0.00 0.01 0.01 94 1016.5
20260508032810 53 282 0.0 0.0 0.00 0.01 0.01 94 1016.5
20260508032308 54 282 0.0 0.0 0.00 0.01 0.01 94 1016.4
20260508031804 54 280 0.0 1.0 0.00 0.01 0.01 93 1016.3
20260508031301 55 301 0.0 0.0 0.00 0.01 0.01 92 1016.5
20260508030757 55 282 1.0 1.0 0.00 0.01 0.01 92 1016.2
20260508030255 56 279 0.0 1.0 0.00 0.01 0.01 91 1016.4
20260508025751 57 290 1.0 1.0 0.00 0.01 0.01 90 1016.3
20260508025248 57 288 1.0 1.0 0.00 0.01 0.01 89 1016.2
20260508024744 58 278 0.0 1.0 0.00 0.01 0.01 88 1016.2
20260508024241 59 243 1.0 2.0 0.00 0.01 0.01 86 1016.2
20260508023738 60 290 0.0 0.0 0.00 0.01 0.01 86 1016.2
20260508023236 61 243 1.0 2.0 0.00 0.01 0.01 84 1016.2
20260508022731 61 237 3.0 3.0 0.00 0.01 0.01 84 1016.2
20260508022228 62 295 0.0 0.0 0.00 0.01 0.01 84 1016.3
20260508021725 63 288 0.0 1.0 0.00 0.01 0.01 83 1016.1
20260508021220 63 285 0.0 0.0 0.00 0.01 0.01 83 1016.3
20260508020718 64 299 1.0 1.0 0.00 0.01 0.01 81 1016.2
20260508020215 64 270 1.0 1.0 0.00 0.01 0.01 80 1016.3
20260508015712 66 282 1.0 2.0 0.00 0.01 0.01 78 1016.2
20260508015209 66 305 0.0 1.0 0.00 0.01 0.01 77 1016.3
20260508014706 65 309 0.0 1.0 0.00 0.01 0.01 79 1016.2
20260508014202 66 297 0.0 0.0 0.00 0.01 0.01 79 1016.4
20260508013658 66 294 1.0 1.0 0.00 0.01 0.01 77 1016.5
20260508013155 67 257 1.0 1.0 0.00 0.01 0.01 76 1016.5
20260508012653 66 245 1.0 2.0 0.00 0.01 0.01 78 1016.4
20260508012149 66 316 0.0 0.0 0.00 0.01 0.01 78 1016.5
20260508011648 66 329 0.0 0.0 0.00 0.01 0.01 78 1016.5
20260508011145 66 308 0.0 0.0 0.00 0.01 0.01 77 1016.5
20260508010641 66 297 0.0 1.0 0.00 0.01 0.01 79 1016.5
20260508010139 65 228 2.0 2.0 0.00 0.01 0.01 79 1016.5
20260508005636 65 292 1.0 1.0 0.00 0.01 0.01 78 1016.5
20260508005133 65 251 1.0 1.0 0.00 0.01 0.01 79 1016.6
20260508004628 65 278 1.0 1.0 0.00 0.01 0.01 79 1016.8
20260508004125 65 264 1.0 1.0 0.00 0.01 0.01 79 1016.7
20260508003621 65 306 0.0 1.0 0.00 0.01 0.01 78 1016.7
20260508003119 65 286 1.0 1.0 0.00 0.01 0.01 79 1016.8
20260508002616 65 285 1.0 2.0 0.00 0.01 0.01 78 1016.7
20260508002114 65 276 1.0 1.0 0.00 0.01 0.01 77 1016.8
20260508001608 66 280 2.0 2.0 0.00 0.01 0.01 76 1016.6
20260508001105 65 322 2.0 2.0 0.00 0.01 0.01 77 1016.9
20260508000601 65 293 2.0 2.0 0.00 0.01 0.01 77 1016.6
20260508000058 65 305 2.0 3.0 0.00 0.01 0.01 76 1016.6
20260507235555 65 293 3.0 5.0 0.00 0.01 0.01 76 1016.7
20260507235052 64 280 1.0 1.0 0.00 0.01 0.01 77 1016.7
20260507234549 65 235 4.0 6.0 0.00 0.01 0.01 76 1016.7
20260507234045 65 272 3.0 5.0 0.00 0.01 0.01 76 1016.6
20260507233542 65 302 1.0 2.0 0.00 0.01 0.01 76 1016.8
20260507233041 65 329 4.0 6.0 0.00 0.01 0.01 75 1016.7
20260507232536 66 295 2.0 2.0 0.00 0.01 0.01 75 1017.0
20260507232034 67 286 1.0 1.0 0.00 0.01 0.01 75 1016.9
20260507231530 66 270 1.0 1.0 0.00 0.01 0.01 76 1017.0
20260507231028 67 292 5.0 6.0 0.00 0.01 0.01 73 1017.2
20260507230524 67 303 3.0 3.0 0.00 0.01 0.01 74 1017.1
20260507230021 68 291 2.0 2.0 0.00 0.01 0.01 74 1017.2
20260507225516 68 281 3.0 3.0 0.00 0.01 0.01 75 1017.2
20260507225012 69 291 2.0 2.0 0.00 0.01 0.01 71 1017.2
20260507224508 70 275 4.0 6.0 0.00 0.01 0.01 71 1017.3
20260507224005 70 279 3.0 3.0 0.00 0.01 0.01 72 1017.2
20260507223501 70 299 2.0 2.0 0.00 0.01 0.01 71 1017.3
20260507222958 71 268 1.0 1.0 0.00 0.01 0.01 74 1017.5
20260507222455 71 174 2.0 2.0 0.00 0.01 0.01 74 1017.5
20260507221951 72 275 3.0 5.0 0.00 0.01 0.01 70 1017.2
20260507221448 73 301 1.0 2.0 0.00 0.01 0.01 70 1017.5
20260507220945 73 271 2.0 3.0 0.00 0.01 0.01 73 1017.3
20260507220442 74 292 3.0 3.0 0.00 0.01 0.01 68 1017.4
20260507215939 73 274 1.0 1.0 0.00 0.01 0.01 67 1017.4
20260507215435 73 297 0.0 0.0 0.00 0.01 0.01 69 1017.5
20260507214933 73 280 2.0 2.0 0.00 0.01 0.01 71 1017.6
20260507214431 73 261 2.0 3.0 0.00 0.01 0.01 69 1017.5
20260507213926 73 330 1.0 1.0 0.00 0.01 0.01 69 1017.7
20260507213423 72 255 1.0 1.0 0.00 0.01 0.01 74 1017.5
20260507212920 71 123 4.0 5.0 0.00 0.01 0.01 72 1018.0
20260507212415 72 302 1.0 1.0 0.00 0.01 0.01 70 1017.9
20260507211912 72 296 1.0 1.0 0.00 0.01 0.01 71 1018.0
20260507211409 71 312 0.0 0.0 0.00 0.01 0.01 73 1018.1
20260507210906 71 302 1.0 2.0 0.00 0.01 0.01 74 1017.8
20260507210403 70 210 2.0 2.0 0.00 0.01 0.01 73 1018.0
20260507205859 71 211 2.0 2.0 0.00 0.01 0.01 72 1017.9
20260507205356 70 315 1.0 2.0 0.00 0.01 0.01 73 1018.1
20260507204852 69 317 0.0 1.0 0.00 0.01 0.01 74 1018.0
20260507204349 69 223 2.0 2.0 0.00 0.01 0.01 77 1018.1
20260507203847 69 229 2.0 2.0 0.00 0.01 0.01 75 1018.3
20260507203345 68 257 3.0 5.0 0.00 0.01 0.01 77 1018.2